Year,Month,Day,Hour,Minute,Value (Times are PST for temperature in C)
2017,06,25,00,00,21.90
2017,06,25,00,01,21.90
2017,06,25,00,02,22.00
2017,06,25,00,03,22.00
2017,06,25,00,04,22.00
2017,06,25,00,05,22.10
2017,06,25,00,06,22.10
2017,06,25,00,07,22.20
2017,06,25,00,08,22.20
2017,06,25,00,09,22.30
2017,06,25,00,10,22.30
2017,06,25,00,11,22.40
2017,06,25,00,12,22.40
2017,06,25,00,13,22.50
2017,06,25,00,14,22.50
2017,06,25,00,15,22.50
2017,06,25,00,16,22.60
2017,06,25,00,17,22.60
2017,06,25,00,18,22.60
2017,06,25,00,19,22.60
2017,06,25,00,20,22.60
2017,06,25,00,21,22.60
2017,06,25,00,22,22.60
2017,06,25,00,23,22.50
2017,06,25,00,24,22.50
2017,06,25,00,25,22.50
2017,06,25,00,26,22.50
2017,06,25,00,27,22.50
2017,06,25,00,28,22.50
2017,06,25,00,29,22.50
2017,06,25,00,30,22.50
2017,06,25,00,31,22.50
2017,06,25,00,32,22.50
2017,06,25,00,33,22.40
2017,06,25,00,34,22.40
2017,06,25,00,35,22.40
2017,06,25,00,36,22.40
2017,06,25,00,37,22.30
2017,06,25,00,38,22.30
2017,06,25,00,39,22.30
2017,06,25,00,40,22.30
2017,06,25,00,41,22.30
2017,06,25,00,42,22.30
2017,06,25,00,43,22.30
2017,06,25,00,44,22.20
2017,06,25,00,45,22.20
2017,06,25,00,46,22.10
2017,06,25,00,47,22.10
2017,06,25,00,48,22.10
2017,06,25,00,49,22.10
2017,06,25,00,50,22.10
2017,06,25,00,51,22.10
2017,06,25,00,52,22.10
2017,06,25,00,53,22.10
2017,06,25,00,54,22.10
2017,06,25,00,55,22.10
2017,06,25,00,56,22.10
2017,06,25,00,57,22.10
2017,06,25,00,58,22.10
2017,06,25,00,59,22.10
2017,06,25,01,00,22.10
2017,06,25,01,01,22.10
2017,06,25,01,02,22.10
2017,06,25,01,03,22.10
2017,06,25,01,04,22.10
2017,06,25,01,05,22.10
2017,06,25,01,06,22.10
2017,06,25,01,07,22.10
2017,06,25,01,08,22.10
2017,06,25,01,09,22.10
2017,06,25,01,10,22.10
2017,06,25,01,11,22.10
2017,06,25,01,12,22.00
2017,06,25,01,13,22.00
2017,06,25,01,14,22.00
2017,06,25,01,15,21.90
2017,06,25,01,16,21.90
2017,06,25,01,17,21.90
2017,06,25,01,18,21.80
2017,06,25,01,19,21.80
2017,06,25,01,20,21.80
2017,06,25,01,21,21.80
2017,06,25,01,22,21.70
2017,06,25,01,23,21.70
2017,06,25,01,24,21.70
2017,06,25,01,25,21.70
2017,06,25,01,26,21.70
2017,06,25,01,27,21.70
2017,06,25,01,28,21.70
2017,06,25,01,29,21.70
2017,06,25,01,30,21.70
2017,06,25,01,31,21.60
2017,06,25,01,32,21.60
2017,06,25,01,33,21.60
2017,06,25,01,34,21.60
2017,06,25,01,35,21.60
2017,06,25,01,36,21.60
2017,06,25,01,37,21.60
2017,06,25,01,38,21.60
2017,06,25,01,39,21.60
2017,06,25,01,40,21.60
2017,06,25,01,41,21.60
2017,06,25,01,42,21.60
2017,06,25,01,43,21.60
2017,06,25,01,44,21.60
2017,06,25,01,45,21.60
2017,06,25,01,46,21.60
2017,06,25,01,47,21.60
2017,06,25,01,48,21.60
2017,06,25,01,49,21.60
2017,06,25,01,50,21.60
2017,06,25,01,51,21.60
2017,06,25,01,52,21.60
2017,06,25,01,53,21.60
2017,06,25,01,54,21.60
2017,06,25,01,55,21.60
2017,06,25,01,56,21.60
2017,06,25,01,57,21.60
2017,06,25,01,58,21.60
2017,06,25,01,59,21.60
2017,06,25,02,00,21.50
2017,06,25,02,01,21.40
2017,06,25,02,02,21.40
2017,06,25,02,03,21.50
2017,06,25,02,04,21.60
2017,06,25,02,05,21.60
2017,06,25,02,06,21.60
2017,06,25,02,07,21.60
2017,06,25,02,08,21.40
2017,06,25,02,09,21.50
2017,06,25,02,10,21.60
2017,06,25,02,11,21.60
2017,06,25,02,12,21.50
2017,06,25,02,13,21.40
2017,06,25,02,14,21.40
2017,06,25,02,15,21.30
2017,06,25,02,16,21.30
2017,06,25,02,17,21.30
2017,06,25,02,18,21.20
2017,06,25,02,19,21.20
2017,06,25,02,20,21.10
2017,06,25,02,21,21.10
2017,06,25,02,22,21.00
2017,06,25,02,23,21.00
2017,06,25,02,24,20.90
2017,06,25,02,25,20.90
2017,06,25,02,26,20.90
2017,06,25,02,27,20.90
2017,06,25,02,28,20.90
2017,06,25,02,29,20.90
2017,06,25,02,30,20.90
2017,06,25,02,31,20.90
2017,06,25,02,32,20.90
2017,06,25,02,33,20.90
2017,06,25,02,34,20.90
2017,06,25,02,35,20.90
2017,06,25,02,36,20.90
2017,06,25,02,37,20.90
2017,06,25,02,38,21.00
2017,06,25,02,39,21.00
2017,06,25,02,40,21.00
2017,06,25,02,41,21.10
2017,06,25,02,42,21.20
2017,06,25,02,43,21.20
2017,06,25,02,44,21.30
2017,06,25,02,45,21.30
2017,06,25,02,46,21.40
2017,06,25,02,47,21.50
2017,06,25,02,48,21.60
2017,06,25,02,49,21.60
2017,06,25,02,50,21.60
2017,06,25,02,51,21.70
2017,06,25,02,52,21.70
2017,06,25,02,53,21.80
2017,06,25,02,54,21.80
2017,06,25,02,55,21.90
2017,06,25,02,56,22.00
2017,06,25,02,57,22.10
2017,06,25,02,58,22.20
2017,06,25,02,59,22.30
2017,06,25,03,00,22.40
2017,06,25,03,01,22.40
2017,06,25,03,02,22.60
2017,06,25,03,03,22.60
2017,06,25,03,04,22.60
2017,06,25,03,05,22.60
2017,06,25,03,06,22.60
2017,06,25,03,07,22.60
2017,06,25,03,08,22.60
2017,06,25,03,09,22.60
2017,06,25,03,10,22.60
2017,06,25,03,11,22.60
2017,06,25,03,12,22.60
2017,06,25,03,13,22.50
2017,06,25,03,14,22.50
2017,06,25,03,15,22.50
2017,06,25,03,16,22.50
2017,06,25,03,17,22.50
2017,06,25,03,18,22.50
2017,06,25,03,19,22.50
2017,06,25,03,20,22.50
2017,06,25,03,21,22.50
2017,06,25,03,22,22.50
2017,06,25,03,23,22.50
2017,06,25,03,24,22.50
2017,06,25,03,25,22.50
2017,06,25,03,26,22.50
2017,06,25,03,27,22.40
2017,06,25,03,28,22.40
2017,06,25,03,29,22.30
2017,06,25,03,30,22.30
2017,06,25,03,31,22.30
2017,06,25,03,32,22.30
2017,06,25,03,33,22.20
2017,06,25,03,34,22.20
2017,06,25,03,35,22.10
2017,06,25,03,36,22.10
2017,06,25,03,37,22.10
2017,06,25,03,38,22.00
2017,06,25,03,39,22.00
2017,06,25,03,40,21.90
2017,06,25,03,41,21.90
2017,06,25,03,42,21.90
2017,06,25,03,43,21.80
2017,06,25,03,44,21.80
2017,06,25,03,45,21.80
2017,06,25,03,46,21.70
2017,06,25,03,47,21.70
2017,06,25,03,48,21.70
2017,06,25,03,49,21.60
2017,06,25,03,50,21.60
2017,06,25,03,51,21.60
2017,06,25,03,52,21.50
2017,06,25,03,53,21.40
2017,06,25,03,54,21.40
2017,06,25,03,55,21.30
2017,06,25,03,56,21.30
2017,06,25,03,57,21.20
2017,06,25,03,58,21.20
2017,06,25,03,59,21.10
2017,06,25,04,00,21.10
2017,06,25,04,01,21.00
2017,06,25,04,02,20.90
2017,06,25,04,03,20.90
2017,06,25,04,04,20.80
2017,06,25,04,05,20.80
2017,06,25,04,06,20.70
2017,06,25,04,07,20.60
2017,06,25,04,08,20.60
2017,06,25,04,09,20.60
2017,06,25,04,10,20.50
2017,06,25,04,11,20.50
2017,06,25,04,12,20.40
2017,06,25,04,13,20.40
2017,06,25,04,14,20.40
2017,06,25,04,15,20.30
2017,06,25,04,16,20.30
2017,06,25,04,17,20.20
2017,06,25,04,18,20.20
2017,06,25,04,19,20.20
2017,06,25,04,20,20.30
2017,06,25,04,21,20.30
2017,06,25,04,22,20.20
2017,06,25,04,23,20.20
2017,06,25,04,24,20.20
2017,06,25,04,25,20.20
2017,06,25,04,26,20.20
2017,06,25,04,27,20.20
2017,06,25,04,28,20.20
2017,06,25,04,29,20.20
2017,06,25,04,30,20.20
2017,06,25,04,31,20.20
2017,06,25,04,32,20.20
2017,06,25,04,33,20.20
2017,06,25,04,34,20.20
2017,06,25,04,35,20.20
2017,06,25,04,36,20.20
2017,06,25,04,37,20.20
2017,06,25,04,38,20.20
2017,06,25,04,39,20.20
2017,06,25,04,40,20.20
2017,06,25,04,41,20.20
2017,06,25,04,42,20.20
2017,06,25,04,43,20.20
2017,06,25,04,44,20.20
2017,06,25,04,45,20.20
2017,06,25,04,46,20.20
2017,06,25,04,47,20.20
2017,06,25,04,48,20.20
2017,06,25,04,49,20.20
2017,06,25,04,50,20.20
2017,06,25,04,51,20.20
2017,06,25,04,52,20.30
2017,06,25,04,53,20.40
2017,06,25,04,54,20.40
2017,06,25,04,55,20.40
2017,06,25,04,56,20.50
2017,06,25,04,57,20.50
2017,06,25,04,58,20.50
2017,06,25,04,59,20.50
2017,06,25,05,00,20.50
2017,06,25,05,01,20.40
2017,06,25,05,02,20.40
2017,06,25,05,03,20.40
2017,06,25,05,04,20.40
2017,06,25,05,05,20.40
2017,06,25,05,06,20.40
2017,06,25,05,07,20.50
2017,06,25,05,08,20.50
2017,06,25,05,09,20.50
2017,06,25,05,10,20.50
2017,06,25,05,11,20.50
2017,06,25,05,12,20.50
2017,06,25,05,13,20.50
2017,06,25,05,14,20.40
2017,06,25,05,15,20.30
2017,06,25,05,16,20.30
2017,06,25,05,17,20.20
2017,06,25,05,18,20.20
2017,06,25,05,19,20.20
2017,06,25,05,20,20.00
2017,06,25,05,21,19.90
2017,06,25,05,22,19.90
2017,06,25,05,23,19.70
2017,06,25,05,24,19.60
2017,06,25,05,25,19.50
2017,06,25,05,26,19.40
2017,06,25,05,27,19.40
2017,06,25,05,28,19.40
2017,06,25,05,29,19.50
2017,06,25,05,30,19.50
2017,06,25,05,31,19.50
2017,06,25,05,32,19.50
2017,06,25,05,33,19.50
2017,06,25,05,34,19.50
2017,06,25,05,35,19.60
2017,06,25,05,36,19.60
2017,06,25,05,37,19.60
2017,06,25,05,38,19.60
2017,06,25,05,39,19.60
2017,06,25,05,40,19.60
2017,06,25,05,41,19.70
2017,06,25,05,42,19.70
2017,06,25,05,43,19.70
2017,06,25,05,44,19.70
2017,06,25,05,45,19.70
2017,06,25,05,46,19.70
2017,06,25,05,47,19.70
2017,06,25,05,48,19.80
2017,06,25,05,49,19.90
2017,06,25,05,50,19.90
2017,06,25,05,51,20.10
2017,06,25,05,52,20.20
2017,06,25,05,53,20.20
2017,06,25,05,54,20.30
2017,06,25,05,55,20.40
2017,06,25,05,56,20.50
2017,06,25,05,57,20.60
2017,06,25,05,58,20.70
2017,06,25,05,59,20.80
2017,06,25,06,00,20.90
2017,06,25,06,01,20.90
2017,06,25,06,02,21.00
2017,06,25,06,03,21.10
2017,06,25,06,04,21.20
2017,06,25,06,05,21.30
2017,06,25,06,06,21.30
2017,06,25,06,07,21.40
2017,06,25,06,08,21.50
2017,06,25,06,09,21.60
2017,06,25,06,10,21.60
2017,06,25,06,11,21.70
2017,06,25,06,12,21.70
2017,06,25,06,13,21.80
2017,06,25,06,14,21.80
2017,06,25,06,15,21.80
2017,06,25,06,16,21.90
2017,06,25,06,17,21.90
2017,06,25,06,18,21.90
2017,06,25,06,19,22.00
2017,06,25,06,20,22.00
2017,06,25,06,21,22.00
2017,06,25,06,22,22.00
2017,06,25,06,23,22.00
2017,06,25,06,24,22.10
2017,06,25,06,25,22.10
2017,06,25,06,26,22.10
2017,06,25,06,27,22.10
2017,06,25,06,28,22.10
2017,06,25,06,29,22.10
2017,06,25,06,30,22.10
2017,06,25,06,31,22.10
2017,06,25,06,32,22.10
2017,06,25,06,33,22.10
2017,06,25,06,34,22.10
2017,06,25,06,35,22.10
2017,06,25,06,36,22.10
2017,06,25,06,37,22.00
2017,06,25,06,38,22.00
2017,06,25,06,39,22.00
2017,06,25,06,40,21.90
2017,06,25,06,41,21.90
2017,06,25,06,42,21.90
2017,06,25,06,43,21.80
2017,06,25,06,44,21.80
2017,06,25,06,45,21.70
2017,06,25,06,46,21.60
2017,06,25,06,47,21.60
2017,06,25,06,48,21.50
2017,06,25,06,49,21.30
2017,06,25,06,50,21.30
2017,06,25,06,51,21.30
2017,06,25,06,52,21.30
2017,06,25,06,53,21.30
2017,06,25,06,54,21.30
2017,06,25,06,55,21.30
2017,06,25,06,56,21.30
2017,06,25,06,57,21.30
2017,06,25,06,58,21.30
2017,06,25,06,59,21.20
2017,06,25,07,00,21.20
2017,06,25,07,01,21.10
2017,06,25,07,02,21.10
2017,06,25,07,03,21.10
2017,06,25,07,04,21.10
2017,06,25,07,05,21.10
2017,06,25,07,06,21.20
2017,06,25,07,07,21.20
2017,06,25,07,08,21.20
2017,06,25,07,09,21.20
2017,06,25,07,10,21.20
2017,06,25,07,11,21.30
2017,06,25,07,12,21.30
2017,06,25,07,13,21.40
2017,06,25,07,14,21.50
2017,06,25,07,15,21.60
2017,06,25,07,16,21.60
2017,06,25,07,17,21.60
2017,06,25,07,18,21.70
2017,06,25,07,19,21.80
2017,06,25,07,20,21.80
2017,06,25,07,21,21.90
2017,06,25,07,22,21.90
2017,06,25,07,23,21.90
2017,06,25,07,24,21.90
2017,06,25,07,25,21.90
2017,06,25,07,26,21.90
2017,06,25,07,27,21.90
2017,06,25,07,28,21.90
2017,06,25,07,29,21.90
2017,06,25,07,30,22.00
2017,06,25,07,31,22.00
2017,06,25,07,32,22.00
2017,06,25,07,33,22.00
2017,06,25,07,34,22.00
2017,06,25,07,35,21.90
2017,06,25,07,36,21.90
2017,06,25,07,37,21.90
2017,06,25,07,38,21.90
2017,06,25,07,39,21.80
2017,06,25,07,40,21.80
2017,06,25,07,41,21.80
2017,06,25,07,42,21.70
2017,06,25,07,43,21.70
2017,06,25,07,44,21.70
2017,06,25,07,45,21.60
2017,06,25,07,46,21.60
2017,06,25,07,47,21.60
2017,06,25,07,48,21.60
2017,06,25,07,49,21.60
2017,06,25,07,50,21.60
2017,06,25,07,51,21.40
2017,06,25,07,52,21.40
2017,06,25,07,53,21.40
2017,06,25,07,54,21.40
2017,06,25,07,55,21.40
2017,06,25,07,56,21.40
2017,06,25,07,57,21.40
2017,06,25,07,58,21.40
2017,06,25,07,59,21.40
2017,06,25,08,00,21.40
2017,06,25,08,01,21.40
2017,06,25,08,02,21.40
2017,06,25,08,03,21.40
2017,06,25,08,04,21.40
2017,06,25,08,05,21.50
2017,06,25,08,06,21.60
2017,06,25,08,07,21.60
2017,06,25,08,08,21.60
2017,06,25,08,09,21.70
2017,06,25,08,10,21.70
2017,06,25,08,11,21.80
2017,06,25,08,12,21.90
2017,06,25,08,13,22.00
2017,06,25,08,14,22.00
2017,06,25,08,15,22.00
2017,06,25,08,16,22.10
2017,06,25,08,17,22.10
2017,06,25,08,18,22.10
2017,06,25,08,19,22.20
2017,06,25,08,20,22.20
2017,06,25,08,21,22.30
2017,06,25,08,22,22.30
2017,06,25,08,23,22.30
2017,06,25,08,24,22.30
2017,06,25,08,25,22.30
2017,06,25,08,26,22.30
2017,06,25,08,27,22.30
2017,06,25,08,28,22.30
2017,06,25,08,29,22.30
2017,06,25,08,30,22.30
2017,06,25,08,31,22.30
2017,06,25,08,32,22.30
2017,06,25,08,33,22.30
2017,06,25,08,34,22.30
2017,06,25,08,35,22.40
2017,06,25,08,36,22.40
2017,06,25,08,37,22.40
2017,06,25,08,38,22.40
2017,06,25,08,39,22.40
2017,06,25,08,40,22.50
2017,06,25,08,41,22.50
2017,06,25,08,42,22.60
2017,06,25,08,43,22.60
2017,06,25,08,44,22.60
2017,06,25,08,45,22.60
2017,06,25,08,46,22.70
2017,06,25,08,47,22.70
2017,06,25,08,48,22.80
2017,06,25,08,49,22.80
2017,06,25,08,50,22.90
2017,06,25,08,51,22.90
2017,06,25,08,52,22.90
2017,06,25,08,53,22.90
2017,06,25,08,54,22.90
2017,06,25,08,55,22.90
2017,06,25,08,56,22.90
2017,06,25,08,57,22.90
2017,06,25,08,58,23.00
2017,06,25,08,59,23.10
2017,06,25,09,00,23.10
2017,06,25,09,01,23.20
2017,06,25,09,02,23.20
2017,06,25,09,03,23.30
2017,06,25,09,04,23.30
2017,06,25,09,05,23.30
2017,06,25,09,06,23.30
2017,06,25,09,07,23.30
2017,06,25,09,08,23.30
2017,06,25,09,09,23.30
2017,06,25,09,10,23.30
2017,06,25,09,11,23.30
2017,06,25,09,12,23.30
2017,06,25,09,13,23.30
2017,06,25,09,14,23.30
2017,06,25,09,15,23.30
2017,06,25,09,16,23.30
2017,06,25,09,17,23.30
2017,06,25,09,18,23.30
2017,06,25,09,19,23.30
2017,06,25,09,20,23.20
2017,06,25,09,21,23.20
2017,06,25,09,22,23.20
2017,06,25,09,23,23.20
2017,06,25,09,24,23.10
2017,06,25,09,25,23.10
2017,06,25,09,26,23.20
2017,06,25,09,27,23.20
2017,06,25,09,28,23.20
2017,06,25,09,29,23.20
2017,06,25,09,30,23.30
2017,06,25,09,31,23.30
2017,06,25,09,32,23.30
2017,06,25,09,33,23.30
2017,06,25,09,34,23.30
2017,06,25,09,35,23.30
2017,06,25,09,36,23.40
2017,06,25,09,37,23.60
2017,06,25,09,38,23.70
2017,06,25,09,39,23.70
2017,06,25,09,40,23.70
2017,06,25,09,41,23.70
2017,06,25,09,42,23.80
2017,06,25,09,43,23.80
2017,06,25,09,44,23.90
2017,06,25,09,45,24.10
2017,06,25,09,46,24.10
2017,06,25,09,47,24.10
2017,06,25,09,48,24.10
2017,06,25,09,49,24.10
2017,06,25,09,50,24.10
2017,06,25,09,51,24.10
2017,06,25,09,52,24.10
2017,06,25,09,53,24.10
2017,06,25,09,54,24.10
2017,06,25,09,55,24.10
2017,06,25,09,56,24.10
2017,06,25,09,57,24.10
2017,06,25,09,58,24.20
2017,06,25,09,59,24.20
2017,06,25,10,00,24.20
2017,06,25,10,01,24.20
2017,06,25,10,02,24.20
2017,06,25,10,03,24.20
2017,06,25,10,04,24.20
2017,06,25,10,05,24.20
2017,06,25,10,06,24.10
2017,06,25,10,07,24.10
2017,06,25,10,08,24.10
2017,06,25,10,09,24.10
2017,06,25,10,10,24.10
2017,06,25,10,11,24.10
2017,06,25,10,12,24.10
2017,06,25,10,13,24.10
2017,06,25,10,14,24.10
2017,06,25,10,15,23.90
2017,06,25,10,16,23.90
2017,06,25,10,17,23.90
2017,06,25,10,18,23.80
2017,06,25,10,19,23.80
2017,06,25,10,20,23.80
2017,06,25,10,21,23.90
2017,06,25,10,22,24.00
2017,06,25,10,23,24.10
2017,06,25,10,24,24.10
2017,06,25,10,25,24.20
2017,06,25,10,26,24.30
2017,06,25,10,27,24.40
2017,06,25,10,28,24.60
2017,06,25,10,29,24.80
2017,06,25,10,30,24.90
2017,06,25,10,31,24.90
2017,06,25,10,32,24.90
2017,06,25,10,33,24.80
2017,06,25,10,34,24.80
2017,06,25,10,35,24.90
2017,06,25,10,36,24.90
2017,06,25,10,37,24.90
2017,06,25,10,38,24.90
2017,06,25,10,39,24.90
2017,06,25,10,40,24.80
2017,06,25,10,41,24.80
2017,06,25,10,42,24.80
2017,06,25,10,43,24.90
2017,06,25,10,44,24.90
2017,06,25,10,45,24.90
2017,06,25,10,46,24.80
2017,06,25,10,47,24.80
2017,06,25,10,48,24.70
2017,06,25,10,49,24.70
2017,06,25,10,50,24.70
2017,06,25,10,51,24.80
2017,06,25,10,52,24.80
2017,06,25,10,53,24.70
2017,06,25,10,54,24.70
2017,06,25,10,55,24.80
2017,06,25,10,56,24.80
2017,06,25,10,57,24.70
2017,06,25,10,58,24.70
2017,06,25,10,59,24.60
2017,06,25,11,00,24.50
2017,06,25,11,01,24.50
2017,06,25,11,02,24.50
2017,06,25,11,03,24.60
2017,06,25,11,04,24.50
2017,06,25,11,05,24.50
2017,06,25,11,06,24.50
2017,06,25,11,07,24.60
2017,06,25,11,08,24.60
2017,06,25,11,09,24.60
2017,06,25,11,10,24.70
2017,06,25,11,11,24.70
2017,06,25,11,12,24.80
2017,06,25,11,13,24.80
2017,06,25,11,14,24.70
2017,06,25,11,15,24.60
2017,06,25,11,16,24.50
2017,06,25,11,17,24.40
2017,06,25,11,18,24.30
2017,06,25,11,19,24.20
2017,06,25,11,20,24.20
2017,06,25,11,21,24.20
2017,06,25,11,22,24.30
2017,06,25,11,23,24.30
2017,06,25,11,24,24.40
2017,06,25,11,25,24.40
2017,06,25,11,26,24.30
2017,06,25,11,27,24.30
2017,06,25,11,28,24.20
2017,06,25,11,29,24.20
2017,06,25,11,30,24.20
2017,06,25,11,31,24.20
2017,06,25,11,32,24.20
2017,06,25,11,33,24.20
2017,06,25,11,34,24.20
2017,06,25,11,35,24.30
2017,06,25,11,36,24.40
2017,06,25,11,37,24.50
2017,06,25,11,38,24.50
2017,06,25,11,39,24.50
2017,06,25,11,40,24.50
2017,06,25,11,41,24.50
2017,06,25,11,42,24.50
2017,06,25,11,43,24.50
2017,06,25,11,44,24.50
2017,06,25,11,45,24.40
2017,06,25,11,46,24.30
2017,06,25,11,47,24.30
2017,06,25,11,48,24.30
2017,06,25,11,49,24.30
2017,06,25,11,50,24.30
2017,06,25,11,51,24.20
2017,06,25,11,52,24.20
2017,06,25,11,53,24.30
2017,06,25,11,54,24.40
2017,06,25,11,55,24.50
2017,06,25,11,56,24.50
2017,06,25,11,57,24.70
2017,06,25,11,58,24.80
2017,06,25,11,59,24.90
2017,06,25,12,00,24.90
2017,06,25,12,01,24.90
2017,06,25,12,02,24.90
2017,06,25,12,03,25.10
2017,06,25,12,04,25.20
2017,06,25,12,05,25.30
2017,06,25,12,06,25.40
2017,06,25,12,07,25.40
2017,06,25,12,08,25.40
2017,06,25,12,09,25.40
2017,06,25,12,10,25.30
2017,06,25,12,11,25.10
2017,06,25,12,12,24.90
2017,06,25,12,13,24.90
2017,06,25,12,14,24.80
2017,06,25,12,15,24.80
2017,06,25,12,16,24.80
2017,06,25,12,17,24.80
2017,06,25,12,18,24.90
2017,06,25,12,19,25.00
2017,06,25,12,20,25.20
2017,06,25,12,21,25.20
2017,06,25,12,22,25.20
2017,06,25,12,23,25.10
2017,06,25,12,24,25.10
2017,06,25,12,25,25.10
2017,06,25,12,26,25.20
2017,06,25,12,27,25.20
2017,06,25,12,28,25.30
2017,06,25,12,29,25.20
2017,06,25,12,30,25.20
2017,06,25,12,31,25.10
2017,06,25,12,32,25.00
2017,06,25,12,33,25.00
2017,06,25,12,34,25.10
2017,06,25,12,35,25.00
2017,06,25,12,36,25.00
2017,06,25,12,37,25.00
2017,06,25,12,38,25.10
2017,06,25,12,39,25.20
2017,06,25,12,40,25.30
2017,06,25,12,41,25.40
2017,06,25,12,42,25.60
2017,06,25,12,43,25.70
2017,06,25,12,44,25.90
2017,06,25,12,45,26.00
2017,06,25,12,46,26.10
2017,06,25,12,47,26.20
2017,06,25,12,48,26.30
2017,06,25,12,49,26.40
2017,06,25,12,50,26.50
2017,06,25,12,51,26.60
2017,06,25,12,52,26.60
2017,06,25,12,53,26.60
2017,06,25,12,54,26.60
2017,06,25,12,55,26.60
2017,06,25,12,56,26.70
2017,06,25,12,57,26.70
2017,06,25,12,58,26.80
2017,06,25,12,59,26.80
2017,06,25,13,00,26.90
2017,06,25,13,01,26.90
2017,06,25,13,02,27.00
2017,06,25,13,03,27.10
2017,06,25,13,04,27.10
2017,06,25,13,05,27.10
2017,06,25,13,06,27.10
2017,06,25,13,07,27.20
2017,06,25,13,08,27.10
2017,06,25,13,09,27.10
2017,06,25,13,10,27.10
2017,06,25,13,11,27.10
2017,06,25,13,12,27.10
2017,06,25,13,13,27.00
2017,06,25,13,14,26.90
2017,06,25,13,15,26.80
2017,06,25,13,16,26.80
2017,06,25,13,17,26.90
2017,06,25,13,18,26.90
2017,06,25,13,19,26.90
2017,06,25,13,20,26.80
2017,06,25,13,21,26.70
2017,06,25,13,22,26.60
2017,06,25,13,23,26.60
2017,06,25,13,24,26.50
2017,06,25,13,25,26.40
2017,06,25,13,26,26.50
2017,06,25,13,27,26.60
2017,06,25,13,28,26.60
2017,06,25,13,29,26.60
2017,06,25,13,30,26.60
2017,06,25,13,31,26.60
2017,06,25,13,32,26.60
2017,06,25,13,33,26.60
2017,06,25,13,34,26.60
2017,06,25,13,35,26.60
2017,06,25,13,36,26.70
2017,06,25,13,37,26.80
2017,06,25,13,38,26.80
2017,06,25,13,39,26.90
2017,06,25,13,40,27.10
2017,06,25,13,41,27.10
2017,06,25,13,42,27.20
2017,06,25,13,43,27.30
2017,06,25,13,44,27.30
2017,06,25,13,45,27.30
2017,06,25,13,46,27.30
2017,06,25,13,47,27.30
2017,06,25,13,48,27.30
2017,06,25,13,49,27.30
2017,06,25,13,50,27.30
2017,06,25,13,51,27.30
2017,06,25,13,52,27.30
2017,06,25,13,53,27.20
2017,06,25,13,54,27.20
2017,06,25,13,55,27.10
2017,06,25,13,56,27.10
2017,06,25,13,57,27.10
2017,06,25,13,58,27.00
2017,06,25,13,59,26.90
2017,06,25,14,00,27.00
2017,06,25,14,01,27.10
2017,06,25,14,02,27.10
2017,06,25,14,03,27.20
2017,06,25,14,04,27.20
2017,06,25,14,05,27.20
2017,06,25,14,06,27.30
2017,06,25,14,07,27.40
2017,06,25,14,08,27.50
2017,06,25,14,09,27.60
2017,06,25,14,10,27.70
2017,06,25,14,11,27.80
2017,06,25,14,12,27.90
2017,06,25,14,13,28.00
2017,06,25,14,14,28.00
2017,06,25,14,15,28.10
2017,06,25,14,16,28.00
2017,06,25,14,17,28.00
2017,06,25,14,18,28.00
2017,06,25,14,19,27.90
2017,06,25,14,20,27.80
2017,06,25,14,21,27.70
2017,06,25,14,22,27.70
2017,06,25,14,23,27.70
2017,06,25,14,24,27.80
2017,06,25,14,25,27.70
2017,06,25,14,26,27.70
2017,06,25,14,27,27.70
2017,06,25,14,28,27.70
2017,06,25,14,29,27.60
2017,06,25,14,30,27.60
2017,06,25,14,31,27.60
2017,06,25,14,32,27.50
2017,06,25,14,33,27.40
2017,06,25,14,34,27.30
2017,06,25,14,35,27.30
2017,06,25,14,36,27.30
2017,06,25,14,37,27.30
2017,06,25,14,38,27.30
2017,06,25,14,39,27.40
2017,06,25,14,40,27.40
2017,06,25,14,41,27.50
2017,06,25,14,42,27.60
2017,06,25,14,43,27.60
2017,06,25,14,44,27.60
2017,06,25,14,45,27.60
2017,06,25,14,46,27.70
2017,06,25,14,47,27.80
2017,06,25,14,48,27.90
2017,06,25,14,49,28.00
2017,06,25,14,50,28.10
2017,06,25,14,51,28.00
2017,06,25,14,52,27.90
2017,06,25,14,53,27.80
2017,06,25,14,54,27.80
2017,06,25,14,55,27.70
2017,06,25,14,56,27.70
2017,06,25,14,57,27.70
2017,06,25,14,58,27.70
2017,06,25,14,59,27.80
2017,06,25,15,00,27.80
2017,06,25,15,01,27.80
2017,06,25,15,02,27.80
2017,06,25,15,03,27.80
2017,06,25,15,04,27.90
2017,06,25,15,05,28.00
2017,06,25,15,06,28.10
2017,06,25,15,07,28.20
2017,06,25,15,08,28.30
2017,06,25,15,09,28.50
2017,06,25,15,10,28.60
2017,06,25,15,11,28.80
2017,06,25,15,12,28.90
2017,06,25,15,13,28.90
2017,06,25,15,14,28.90
2017,06,25,15,15,28.80
2017,06,25,15,16,28.60
2017,06,25,15,17,28.60
2017,06,25,15,18,28.50
2017,06,25,15,19,28.40
2017,06,25,15,20,28.40
2017,06,25,15,21,28.40
2017,06,25,15,22,28.40
2017,06,25,15,23,28.40
2017,06,25,15,24,28.40
2017,06,25,15,25,28.40
2017,06,25,15,26,28.30
2017,06,25,15,27,28.30
2017,06,25,15,28,28.20
2017,06,25,15,29,28.20
2017,06,25,15,30,28.20
2017,06,25,15,31,28.20
2017,06,25,15,32,28.20
2017,06,25,15,33,28.20
2017,06,25,15,34,28.20
2017,06,25,15,35,28.10
2017,06,25,15,36,28.10
2017,06,25,15,37,28.10
2017,06,25,15,38,28.10
2017,06,25,15,39,28.10
2017,06,25,15,40,28.10
2017,06,25,15,41,28.00
2017,06,25,15,42,28.00
2017,06,25,15,43,28.00
2017,06,25,15,44,28.00
2017,06,25,15,45,28.00
2017,06,25,15,46,27.90
2017,06,25,15,47,27.90
2017,06,25,15,48,27.90
2017,06,25,15,49,27.90
2017,06,25,15,50,28.00
2017,06,25,15,51,28.00
2017,06,25,15,52,28.10
2017,06,25,15,53,28.20
2017,06,25,15,54,28.40
2017,06,25,15,55,28.60
2017,06,25,15,56,28.70
2017,06,25,15,57,28.80
2017,06,25,15,58,28.90
2017,06,25,15,59,29.00
2017,06,25,16,00,29.10
2017,06,25,16,01,29.20
2017,06,25,16,02,29.30
2017,06,25,16,03,29.40
2017,06,25,16,04,29.50
2017,06,25,16,05,29.50
2017,06,25,16,06,29.50
2017,06,25,16,07,29.50
2017,06,25,16,08,29.50
2017,06,25,16,09,29.50
2017,06,25,16,10,29.50
2017,06,25,16,11,29.50
2017,06,25,16,12,29.50
2017,06,25,16,13,29.50
2017,06,25,16,14,29.50
2017,06,25,16,15,29.50
2017,06,25,16,16,29.50
2017,06,25,16,17,29.50
2017,06,25,16,18,29.50
2017,06,25,16,19,29.40
2017,06,25,16,20,29.40
2017,06,25,16,21,29.40
2017,06,25,16,22,29.40
2017,06,25,16,23,29.40
2017,06,25,16,24,29.40
2017,06,25,16,25,29.30
2017,06,25,16,26,29.30
2017,06,25,16,27,29.20
2017,06,25,16,28,29.10
2017,06,25,16,29,29.00
2017,06,25,16,30,28.90
2017,06,25,16,31,28.90
2017,06,25,16,32,28.90
2017,06,25,16,33,28.90
2017,06,25,16,34,28.80
2017,06,25,16,35,28.80
2017,06,25,16,36,28.70
2017,06,25,16,37,28.70
2017,06,25,16,38,28.60
2017,06,25,16,39,28.60
2017,06,25,16,40,28.60
2017,06,25,16,41,28.70
2017,06,25,16,42,28.70
2017,06,25,16,43,28.70
2017,06,25,16,44,28.80
2017,06,25,16,45,28.80
2017,06,25,16,46,28.80
2017,06,25,16,47,28.90
2017,06,25,16,48,28.90
2017,06,25,16,49,28.90
2017,06,25,16,50,28.90
2017,06,25,16,51,28.90
2017,06,25,16,52,28.90
2017,06,25,16,53,28.90
2017,06,25,16,54,28.90
2017,06,25,16,55,29.00
2017,06,25,16,56,29.10
2017,06,25,16,57,29.10
2017,06,25,16,58,29.10
2017,06,25,16,59,29.10
2017,06,25,17,00,29.00
2017,06,25,17,01,28.90
2017,06,25,17,02,28.90
2017,06,25,17,03,28.90
2017,06,25,17,04,28.90
2017,06,25,17,05,28.90
2017,06,25,17,06,28.90
2017,06,25,17,07,28.90
2017,06,25,17,08,28.90
2017,06,25,17,09,29.00
2017,06,25,17,10,29.10
2017,06,25,17,11,29.10
2017,06,25,17,12,29.20
2017,06,25,17,13,29.30
2017,06,25,17,14,29.30
2017,06,25,17,15,29.40
2017,06,25,17,16,29.40
2017,06,25,17,17,29.40
2017,06,25,17,18,29.40
2017,06,25,17,19,29.50